North Las Vegas, NV

5:53 AM PDT on June 21, 2018 (GMT -0700)
North Las Vegas

Weather History for KVGT - September, 2017

Change the Weather History Date:

Thursday, September 14, 2017

  Actual Average Record
Temperature  
Mean Temperature 82 °F 82 °F  
Max Temperature 89 °F 94 °F 104 °F (2000)
Min Temperature 75 °F 70 °F 62 °F (2011)
Degree Days  
Heating Degree Days 0 0  
Month to date heating degree days 0 0  
Since 1 July heating degree days 0 0  
Cooling Degree Days 17 17  
Month to date cooling degree days 329 268  
Year to date cooling degree days 3306 2914  
Growing Degree Days 32 (Base 50)    
Moisture  
Dew Point 38 °F    
Average Humidity 32    
Maximum Humidity 52    
Minimum Humidity 12    
Precipitation  
Precipitation 0.00 in 0.01 in 0.77 in (2011)
Month to date precipitation 0.01 0.23  
Year to date precipitation 2.72 3.83  
Sea Level Pressure  
Sea Level Pressure 29.70 in    
Wind  
Wind Speed 7 mph (SSW)    
Max Wind Speed 14 mph    
Max Gust Speed 17 mph    
Visibility 10 miles    
Events Thunderstorm    
T = Trace of Precipitation, MM = Missing Value Source: NWS Daily Summary

Daily Weather History Graph

Daily Weather History Graph

Search for Another Location

Airport or City:

Astronomy

Sep. 14, 2017 Rise Set
Actual Time 6:22 AM PDT 6:49 PM PDT
Civil Twilight 5:56 AM PDT 7:14 PM PDT
Nautical Twilight 5:26 AM PDT 7:45 PM PDT
Astronomical Twilight 4:55 AM PDT 8:15 PM PDT
Moon 12:31 AM PDT (9/14) 3:02 PM PDT (9/14)
Length of Visible Light 13h 17m
Length of Day
12h 26m
Waning Crescent, 33% of the Moon is Illuminated
Sep 14
Waning Crescent
Sep 19
New
Sep 27
First Quarter
Oct 5
Full
Oct 12
Last Quarter

Hourly Weather History & Observations

Time (PDT) Temp. Heat Index Dew Point Humidity Pressure Visibility Wind Dir Wind Speed Gust Speed Precip Events Conditions
12:53 AM 80.1 °F 80.1 °F 55.0 °F 42% 29.70 in 10.0 mi NNE 4.6 mph - N/A   Clear
1:53 AM 78.1 °F - 59.0 °F 52% 29.69 in 10.0 mi NNW 4.6 mph - N/A   Clear
2:53 AM 78.1 °F - 57.9 °F 50% 29.68 in 10.0 mi Calm Calm - N/A   Clear
3:53 AM 78.1 °F - 55.9 °F 46% 29.67 in 10.0 mi West 3.5 mph - N/A   Clear
4:53 AM 78.1 °F - 53.1 °F 42% 29.67 in 10.0 mi SW 5.8 mph - N/A   Mostly Cloudy
5:53 AM 78.1 °F - 46.0 °F 32% 29.69 in 10.0 mi South 8.1 mph - N/A   Clear
6:53 AM 77.0 °F - 44.1 °F 31% 29.70 in 10.0 mi WSW 3.5 mph - N/A   Clear
7:53 AM 77.0 °F - 36.0 °F 23% 29.70 in 10.0 mi South 10.4 mph - N/A   Clear
8:53 AM 79.0 °F - 37.0 °F 22% 29.72 in 10.0 mi South 8.1 mph - N/A   Clear
9:37 AM 80.1 °F - 37.9 °F 22% 29.76 in 10.0 mi SSE 8.1 mph - N/A Thunderstorm Clear
9:53 AM 81.0 °F - 37.9 °F 21% 29.75 in 10.0 mi SE 8.1 mph - N/A   Clear
10:53 AM 82.0 °F - 36.0 °F 19% 29.75 in 10.0 mi SSE 10.4 mph - N/A   Clear
11:53 AM 84.0 °F - 32.0 °F 15% 29.73 in 10.0 mi Variable 3.5 mph - N/A   Clear
12:21 PM 84.9 °F - 28.0 °F 13% 29.74 in 10.0 mi SSW 6.9 mph - N/A Thunderstorm Clear
12:32 PM 86.0 °F - 27.0 °F 12% 29.74 in 10.0 mi SSW 9.2 mph - N/A Thunderstorm Thunderstorm
12:53 PM 86.0 °F - 28.0 °F 12% 29.71 in 10.0 mi SSW 9.2 mph - N/A Thunderstorm Thunderstorm
1:29 PM 87.1 °F - 30.0 °F 13% 29.72 in 10.0 mi SE 11.5 mph - N/A Thunderstorm Clear
1:50 PM 87.8 °F - 26.6 °F 11% 29.72 in 10.0 mi South 8.1 mph - N/A   Clear
1:53 PM 87.1 °F - 27.0 °F 11% 29.69 in 10.0 mi SSW 8.1 mph - N/A   Clear
2:53 PM 88.0 °F - 28.0 °F 12% 29.68 in 10.0 mi South 5.8 mph - N/A   Clear
3:53 PM 88.0 °F - 28.0 °F 12% 29.67 in 10.0 mi SSW 5.8 mph - N/A   Clear
4:53 PM 88.0 °F - 37.0 °F 16% 29.66 in 10.0 mi Calm Calm - N/A   Clear
5:53 PM 88.0 °F - 39.0 °F 18% 29.65 in 10.0 mi SW 8.1 mph - N/A   Clear
6:53 PM 87.1 °F - 36.0 °F 16% 29.66 in 10.0 mi West 9.2 mph - N/A   Clear
7:53 PM 84.9 °F - 37.0 °F 18% 29.67 in 10.0 mi SSW 8.1 mph - N/A   Clear
8:53 PM 84.0 °F - 35.1 °F 17% 29.68 in 10.0 mi South 9.2 mph - N/A   Clear
9:53 PM 82.0 °F - 37.9 °F 21% 29.69 in 10.0 mi South 8.1 mph - N/A   Clear
10:53 PM 81.0 °F - 41.0 °F 24% 29.68 in 10.0 mi South 9.2 mph - N/A   Clear
11:53 PM 80.1 °F - 43.0 °F 27% 29.68 in 10.0 mi SSW 11.5 mph - N/A   Clear